Leeming, United Kingdom

8:56 AM BST on May 27, 2017 (GMT +0100)
Leeming Air Base

Weather History for EGXE - December, 2012

Change the Weather History Date:

Friday, December 7, 2012

  Actual Average Record
Temperature  
Mean Temperature 38 °F -  
Max Temperature 41 °F 44 °F - ()
Min Temperature 35 °F 34 °F - ()
Degree Days  
Heating Degree Days 27    
Moisture  
Dew Point 34 °F    
Average Humidity 82    
Maximum Humidity 93    
Minimum Humidity 62    
Precipitation  
Precipitation 0.02 in 0.07 in - ()
Sea Level Pressure  
Sea Level Pressure 29.63 in    
Wind  
Wind Speed 14 mph ()    
Max Wind Speed 24 mph    
Max Gust Speed -    
Visibility 7.3 miles    
Events Rain    
T = Trace of Precipitation, MM = Missing Value Source: Averaged Metar Reports

Daily Weather History Graph

Daily Weather History Graph

Search for Another Location

Airport or City:

Trip Planner

Search our weather history database for the weather conditions in past years. The results will help you decide how hot, cold, wet, or windy it might be!

Date:

Astronomy

Dec. 07, 2012 Rise Set
Actual Time 8:12 AM GMT 3:43 PM GMT
Civil Twilight 7:28 AM GMT 4:26 PM GMT
Nautical Twilight 6:42 AM GMT 5:12 PM GMT
Astronomical Twilight 5:59 AM GMT 5:56 PM GMT
Moon 12:19 AM GMT (12/7) 12:23 PM GMT (12/7)
Length of Visible Light 8h 57m
Length of Day
7h 30m
Last Quarter, 41% of the Moon is Illuminated
Dec 7
Last Quarter
Dec 13
New
Dec 20
First Quarter
Dec 28
Full
Jan 5
Last Quarter

Hourly Weather History & Observations

Time (GMT) Temp. Windchill Dew Point Humidity Pressure Visibility Wind Dir Wind Speed Gust Speed Precip Events Conditions
12:50 AM 37.4 °F 28.5 °F 33.8 °F 87% 29.27 in 6.2 mi WNW 15.0 mph - N/A Rain Light Rain Showers
1:50 AM 37.4 °F 28.9 °F 33.8 °F 87% 29.27 in 6.2 mi WNW 13.8 mph - N/A Rain Light Rain
2:50 AM 38 °F - 33 °F 76% 29.31 in 12 mi WNW 15.0 mph - - Rain Light Rain
2:50 AM 37.4 °F 28.5 °F 33.8 °F 87% 29.30 in 6.2 mi WNW 15.0 mph - N/A Rain Light Rain
3:50 AM 35.6 °F 25.9 °F 33.8 °F 93% 29.30 in 6.2 mi NW 16.1 mph - N/A Rain Light Rain
4:50 AM 37.4 °F 28.5 °F 35.6 °F 93% 29.33 in 6.2 mi NNW 15.0 mph - N/A Rain Light Rain
5:50 AM 39 °F - 35 °F 81% 29.40 in 12 mi NNW 21.9 mph - - Rain Light Rain Showers
5:50 AM 39.2 °F 29.0 °F 35.6 °F 87% 29.39 in 6.2 mi NNW 21.9 mph - N/A Rain Light Rain Showers
6:50 AM 37.4 °F 26.4 °F 32.0 °F 81% 29.42 in 6.2 mi NNW 23.0 mph - N/A   Partly Cloudy
7:50 AM 37.4 °F 26.1 °F 30.2 °F 75% 29.44 in 6.2 mi NNW 24.2 mph - N/A   Partly Cloudy
8:50 AM 37 °F - 29 °F 65% 29.52 in 47 mi NNW 19.6 mph - -   Partly Cloudy
8:50 AM 37.4 °F 27.2 °F 30.2 °F 75% 29.50 in 6.2 mi NNW 19.6 mph - N/A   Partly Cloudy
9:50 AM 37.4 °F 27.8 °F 30.2 °F 75% 29.53 in 6.2 mi NW 17.3 mph - N/A   Partly Cloudy
10:50 AM 39.2 °F 30.8 °F 30.2 °F 70% 29.56 in 6.2 mi NW 15.0 mph - N/A   Partly Cloudy
11:50 AM 41 °F - 33 °F 62% 29.61 in 47 mi NW 13.8 mph - -   Partly Cloudy
11:50 AM 41.0 °F 33.5 °F 32.0 °F 70% 29.59 in 6.2 mi NW 13.8 mph - N/A   Partly Cloudy
12:50 PM 41.0 °F 32.8 °F 33.8 °F 76% 29.62 in 6.2 mi NNW 16.1 mph - N/A   Partly Cloudy
1:50 PM 41.0 °F 33.1 °F 33.8 °F 76% 29.65 in 6.2 mi NNW 15.0 mph - N/A   Mostly Cloudy
2:50 PM 41 °F - 35 °F 72% 29.70 in 25 mi NNW 16.1 mph - -   Mostly Cloudy
2:50 PM 41.0 °F 32.8 °F 35.6 °F 81% 29.68 in 6.2 mi NNW 16.1 mph - N/A   Mostly Cloudy
3:50 PM 39.2 °F 30.8 °F 35.6 °F 87% 29.74 in 6.2 mi NNW 15.0 mph - N/A   Scattered Clouds
4:50 PM 39.2 °F 30.8 °F 35.6 °F 87% 29.77 in 6.2 mi NNW 15.0 mph - N/A Rain Light Rain Showers
5:50 PM 40 °F - 37 °F 84% 29.85 in 12 mi NNW 15.0 mph - - Rain Light Rain Showers
5:50 PM 41.0 °F 33.1 °F 37.4 °F 87% 29.83 in 6.2 mi NNW 15.0 mph - N/A Rain Light Rain Showers
6:50 PM 39.2 °F 31.2 °F 37.4 °F 93% 29.86 in 6.2 mi NNW 13.8 mph - N/A   Scattered Clouds
7:50 PM 39.2 °F 32.5 °F 37.4 °F 93% 29.92 in 6.2 mi NNW 10.4 mph - N/A Rain Light Rain Showers
8:50 PM 40 °F - 38 °F 89% 29.98 in 12 mi NNW 10.4 mph - - Rain Light Rain Showers
8:50 PM 39.2 °F 32.5 °F 37.4 °F 93% 29.98 in 6.2 mi NNW 10.4 mph - N/A Rain Light Rain Showers
9:50 PM 39.2 °F 33.6 °F 37.4 °F 93% 30.01 in 6.2 mi NW 8.1 mph - N/A   Scattered Clouds
10:50 PM 39.2 °F 34.2 °F 37.4 °F 93% 30.04 in 6.2 mi North 6.9 mph - N/A   Mostly Cloudy
11:50 PM 40 °F - 37 °F 87% 30.07 in 14 mi NW 4.6 mph - -   Mostly Cloudy